Galveston, TX

9:33 AM CDT on September 30, 2016 (GMT -0500)
Scholes International At Galveston

Weather History for KGLS - April, 2013

Change the Weather History Date:

Monday, April 29, 2013

  Actual Average Record
Temperature  
Mean Temperature 74 °F 74 °F  
Max Temperature 78 °F 79 °F 88 °F (2014)
Min Temperature 69 °F 68 °F 53 °F (1908)
Degree Days  
Heating Degree Days 0 0  
Month to date heating degree days 35 16  
Since 1 July heating degree days 745 1007  
Cooling Degree Days 9 8  
Month to date cooling degree days 121 163  
Year to date cooling degree days 225 233  
Growing Degree Days 23 (Base 50)    
Moisture  
Dew Point 70 °F    
Average Humidity 88    
Maximum Humidity 100    
Minimum Humidity 76    
Precipitation  
Precipitation 0.12 in 0.09 in 5.00 in (1988)
Month to date precipitation 3.45 2.93  
Year to date precipitation 13.59 12.86  
Snow  
Snow 0.00 in - - ()
Month to date snowfall 0.0  
Since 1 July snowfall 0.0 0.0  
Snow Depth 0.00 in    
Sea Level Pressure  
Sea Level Pressure 29.90 in    
Wind  
Wind Speed 9 mph (ESE)    
Max Wind Speed 18 mph    
Max Gust Speed 22 mph    
Visibility 10 miles    
Events Rain , Thunderstorm    
T = Trace of Precipitation, MM = Missing Value Source: NWS Daily Summary

Daily Weather History Graph

Daily Weather History Graph

Search for Another Location

Airport or City:

Trip Planner

Search our weather history database for the weather conditions in past years. The results will help you decide how hot, cold, wet, or windy it might be!

Date:

Astronomy

Apr. 29, 2013 Rise Set
Actual Time 6:39 AM CDT 7:54 PM CDT
Civil Twilight 6:14 AM CDT 8:19 PM CDT
Nautical Twilight 5:44 AM CDT 8:49 PM CDT
Astronomical Twilight 5:13 AM CDT 9:20 PM CDT
Moon No Moon Rise 10:08 AM CDT (4/29)
Length of Visible Light 14h 05m
Length of Day
13h 15m
Waning Gibbous, 80% of the Moon is Illuminated
Apr 29
Waning Gibbous
May 2
Last Quarter
May 9
New
May 17
First Quarter
May 24
Full

Hourly Weather History & Observations

Time (CDT) Temp. Dew Point Humidity Pressure Visibility Wind Dir Wind Speed Gust Speed Precip Events Conditions
12:52 AM 71.1 °F 66.9 °F 87% 29.94 in 10.0 mi East 5.8 mph - N/A   Clear
1:52 AM 71.1 °F 68.0 °F 90% 29.94 in 10.0 mi East 3.5 mph - N/A   Clear
2:52 AM 71.1 °F 70.0 °F 96% 29.91 in 10.0 mi ESE 8.1 mph - N/A   Clear
3:04 AM 71.6 °F 69.8 °F 94% 29.91 in 10.0 mi SE 8.1 mph - N/A   Partly Cloudy
3:45 AM 71.6 °F 69.8 °F 94% 29.90 in 9.0 mi SE 9.2 mph - N/A   Mostly Cloudy
3:52 AM 71.1 °F 70.0 °F 96% 29.91 in 10.0 mi SE 9.2 mph - N/A   Mostly Cloudy
4:02 AM 71.6 °F 69.8 °F 94% 29.90 in 10.0 mi SE 9.2 mph - N/A   Scattered Clouds
4:52 AM 70.0 °F 69.1 °F 97% 29.89 in 9.0 mi SE 5.8 mph - N/A   Clear
5:52 AM 70.0 °F 69.1 °F 97% 29.89 in 8.0 mi SE 5.8 mph - N/A   Clear
5:59 AM 69.8 °F 69.8 °F 100% 29.89 in 8.0 mi SE 4.6 mph - N/A   Partly Cloudy
6:52 AM 70.0 °F 69.1 °F 97% 29.90 in 8.0 mi SSE 6.9 mph - N/A   Clear
7:00 AM 69.8 °F 69.8 °F 100% 29.91 in 9.0 mi SSE 6.9 mph - N/A   Scattered Clouds
7:11 AM 69.8 °F 69.8 °F 100% 29.91 in 9.0 mi SSE 4.6 mph - N/A   Mostly Cloudy
7:21 AM 69.8 °F 69.8 °F 100% 29.91 in 8.0 mi SSE 3.5 mph - N/A   Scattered Clouds
7:52 AM 70.0 °F 70.0 °F 100% 29.93 in 8.0 mi SE 3.5 mph - N/A   Clear
8:14 AM 71.6 °F 71.6 °F 100% 29.93 in 10.0 mi Calm Calm - N/A   Partly Cloudy
8:52 AM 72.0 °F 71.1 °F 97% 29.94 in 10.0 mi SE 5.8 mph - N/A   Mostly Cloudy
9:52 AM 73.9 °F 70.0 °F 87% 29.94 in 10.0 mi SE 6.9 mph - 0.01 in   Mostly Cloudy
9:59 AM 73.4 °F 69.8 °F 88% 29.94 in 10.0 mi SE 5.8 mph - N/A   Clear
10:52 AM 75.0 °F 70.0 °F 84% 29.95 in 10.0 mi ESE 6.9 mph - N/A   Clear
11:48 AM 75.2 °F 69.8 °F 83% 29.95 in 10.0 mi East 9.2 mph - N/A   Mostly Cloudy
11:52 AM 75.0 °F 70.0 °F 84% 29.95 in 10.0 mi East 8.1 mph - N/A   Mostly Cloudy
12:52 PM 77.0 °F 70.0 °F 79% 29.94 in 10.0 mi East 9.2 mph - N/A   Mostly Cloudy
1:52 PM 75.9 °F 70.0 °F 82% 29.92 in 10.0 mi East 11.5 mph - N/A   Partly Cloudy
2:27 PM 75.2 °F 71.6 °F 89% 29.91 in 10.0 mi East 10.4 mph - N/A   Mostly Cloudy
2:52 PM 77.0 °F 72.0 °F 84% 29.90 in 10.0 mi East 11.5 mph - N/A   Mostly Cloudy
3:05 PM 75.2 °F 71.6 °F 89% 29.89 in 10.0 mi East 12.7 mph - N/A   Scattered Clouds
3:37 PM 75.2 °F 71.6 °F 89% 29.88 in 10.0 mi ESE 10.4 mph - N/A   Mostly Cloudy
3:52 PM 75.0 °F 71.1 °F 87% 29.88 in 10.0 mi East 11.5 mph - N/A   Mostly Cloudy
3:59 PM 75.2 °F 71.6 °F 89% 29.88 in 10.0 mi East 11.5 mph - N/A   Overcast
4:52 PM 73.9 °F 70.0 °F 87% 29.87 in 10.0 mi ESE 10.4 mph - N/A   Mostly Cloudy
5:10 PM 73.4 °F 71.6 °F 94% 29.86 in 10.0 mi East 8.1 mph - N/A   Mostly Cloudy
5:34 PM 73.4 °F 71.6 °F 94% 29.86 in 10.0 mi ESE 9.2 mph - N/A   Clear
5:52 PM 73.0 °F 71.1 °F 93% 29.86 in 10.0 mi East 8.1 mph - N/A   Clear
6:32 PM 73.4 °F 69.8 °F 88% 29.87 in 10.0 mi East 8.1 mph - N/A   Partly Cloudy
6:52 PM 73.0 °F 71.1 °F 93% 29.86 in 10.0 mi ESE 10.4 mph - N/A   Mostly Cloudy
7:52 PM 72.0 °F 70.0 °F 93% 29.86 in 10.0 mi ESE 10.4 mph - 0.00 in Rain Light Rain
8:52 PM 72.0 °F 70.0 °F 93% 29.86 in 10.0 mi East 8.1 mph - 0.00 in   Clear
9:52 PM 73.9 °F 71.1 °F 91% 29.89 in 10.0 mi SE 6.9 mph - 0.01 in Rain Light Rain
10:18 PM 71.6 °F 71.6 °F 100% 29.88 in 9.0 mi SE 11.5 mph - 0.03 in Rain , Thunderstorm Light Rain
10:43 PM 71.6 °F 71.6 °F 100% 29.87 in 8.0 mi SE 12.7 mph - 0.08 in Rain Light Rain
10:52 PM 71.6 °F 71.6 °F 100% 29.87 in 8.0 mi SE 13.8 mph - N/A Rain Light Rain
11:52 PM 72.0 °F 71.1 °F 97% 29.87 in 10.0 mi SE 10.4 mph - 0.01 in   Mostly Cloudy